| time (UTC) | temp F | wind direction | speed MPH | gust MPH | rain 1hr in | rain 24hr in | rain mn in | humidity % | barometer mb |
| 20260502170348 | 51 | 178 | 3.0 | 4.0 | 0.00 | 0.24 | 0.24 | 46 | 1009.4 |
| 20260502164335 | 51 | 131 | 0.0 | 1.0 | 0.00 | 0.24 | 0.24 | 54 | 1009.4 |
| 20260502163831 | 52 | 20 | 6.0 | 7.0 | 0.00 | 0.24 | 0.24 | 47 | 1009.6 |
| 20260502163327 | 53 | 47 | 1.0 | 1.0 | 0.00 | 0.24 | 0.24 | 56 | 1009.5 |
| 20260502162825 | 52 | 144 | 1.0 | 2.0 | 0.00 | 0.24 | 0.24 | 52 | 1009.4 |
| 20260502162322 | 52 | 83 | 0.0 | 1.0 | 0.00 | 0.24 | 0.24 | 54 | 1009.4 |
| 20260502161820 | 52 | 196 | 3.0 | 4.0 | 0.00 | 0.24 | 0.24 | 48 | 1009.7 |
| 20260502161315 | 52 | 211 | 4.0 | 6.0 | 0.00 | 0.24 | 0.24 | 52 | 1009.8 |
| 20260502160813 | 53 | 120 | 2.0 | 2.0 | 0.00 | 0.24 | 0.24 | 46 | 1009.8 |
| 20260502160312 | 52 | 115 | 0.0 | 0.0 | 0.00 | 0.24 | 0.24 | 55 | 1009.8 |
| 20260502152241 | 51 | 221 | 2.0 | 3.0 | 0.00 | 0.24 | 0.24 | 58 | 1009.9 |
| 20260502151739 | 51 | 49 | 1.0 | 3.0 | 0.00 | 0.24 | 0.24 | 57 | 1010.1 |
| 20260502151236 | 49 | 205 | 3.0 | 3.0 | 0.00 | 0.24 | 0.24 | 63 | 1009.9 |
| 20260502150733 | 49 | 69 | 5.0 | 7.0 | 0.00 | 0.24 | 0.24 | 65 | 1009.9 |
| 20260502150230 | 49 | 197 | 1.0 | 1.0 | 0.00 | 0.24 | 0.24 | 68 | 1009.9 |
| 20260502130618 | 45 | 243 | 3.0 | 3.0 | 0.00 | 0.24 | 0.24 | 87 | 1010.4 |
| 20260502130116 | 44 | 121 | 0.0 | 1.0 | 0.00 | 0.24 | 0.24 | 87 | 1010.3 |
| 20260502123602 | 42 | 187 | 2.0 | 3.0 | 0.00 | 0.24 | 0.24 | 93 | 1010.3 |
| 20260502123058 | 42 | 240 | 1.0 | 2.0 | 0.00 | 0.24 | 0.24 | 98 | 1009.9 |
| 20260502122555 | 41 | 191 | 0.0 | 0.0 | 0.00 | 0.24 | 0.24 | 98 | 1009.9 |
| 20260502122052 | 41 | 175 | 0.0 | 0.0 | 0.00 | 0.24 | 0.24 | 98 | 1010.1 |
| 20260502121549 | 42 | 185 | 0.0 | 0.0 | 0.00 | 0.24 | 0.24 | 99 | 1009.9 |
| 20260502121047 | 41 | 179 | 1.0 | 2.0 | 0.00 | 0.24 | 0.24 | 99 | 1010.2 |
| 20260502120543 | 41 | 209 | 2.0 | 2.0 | 0.00 | 0.24 | 0.24 | 99 | 1010.2 |
| 20260502115538 | 41 | 168 | 0.0 | 0.0 | 0.00 | 0.24 | 0.24 | 99 | 1010.3 |
| 20260502115033 | 39 | 170 | 0.0 | 0.0 | 0.00 | 0.24 | 0.24 | 99 | 1010.2 |
| 20260502114530 | 39 | 174 | 0.0 | 0.0 | 0.00 | 0.24 | 0.24 | 99 | 1010.4 |
| 20260502114027 | 39 | 182 | 2.0 | 2.0 | 0.00 | 0.24 | 0.24 | 99 | 1010.3 |
| 20260502113525 | 39 | 181 | 1.0 | 2.0 | 0.00 | 0.24 | 0.24 | 99 | 1010.1 |
| 20260502113023 | 39 | 129 | 1.0 | 2.0 | 0.00 | 0.24 | 0.24 | 99 | 1010.5 |
| 20260502112521 | 39 | 327 | 1.0 | 1.0 | 0.00 | 0.24 | 0.24 | 99 | 1010.5 |
| 20260502112018 | 40 | 33 | 0.0 | 1.0 | 0.00 | 0.24 | 0.24 | 99 | 1010.5 |
| 20260502111515 | 40 | 135 | 0.0 | 1.0 | 0.00 | 0.24 | 0.24 | 99 | 1010.4 |
| 20260502111013 | 40 | 150 | 0.0 | 0.0 | 0.00 | 0.24 | 0.24 | 99 | 1010.1 |
| 20260502110510 | 40 | 173 | 4.0 | 4.0 | 0.05 | 0.24 | 0.24 | 99 | 1010.1 |
| 20260502110008 | 40 | 240 | 1.0 | 1.0 | 0.05 | 0.24 | 0.24 | 99 | 1009.9 |
| 20260502105505 | 40 | 237 | 1.0 | 2.0 | 0.00 | 0.23 | 0.23 | 99 | 1009.7 |
| 20260502105002 | 40 | 189 | 2.0 | 3.0 | 0.00 | 0.23 | 0.23 | 99 | 1009.8 |
| 20260502104459 | 41 | 184 | 2.0 | 2.0 | 0.00 | 0.23 | 0.23 | 99 | 1009.6 |
| 20260502103956 | 41 | 159 | 1.0 | 2.0 | 0.00 | 0.23 | 0.23 | 99 | 1009.4 |
| 20260502103454 | 41 | 205 | 1.0 | 1.0 | 0.00 | 0.23 | 0.23 | 99 | 1009.6 |
| 20260502102951 | 41 | 216 | 1.0 | 1.0 | 0.00 | 0.23 | 0.23 | 99 | 1009.4 |
| 20260502102448 | 41 | 227 | 0.0 | 0.0 | 0.07 | 0.23 | 0.23 | 99 | 1009.3 |
| 20260502101944 | 41 | 301 | 3.0 | 4.0 | 0.07 | 0.23 | 0.23 | 99 | 1009.3 |
| 20260502101443 | 42 | 192 | 1.0 | 1.0 | 0.00 | 0.22 | 0.22 | 99 | 1009.3 |
| 20260502100941 | 42 | 188 | 0.0 | 1.0 | 0.00 | 0.22 | 0.22 | 99 | 1009.0 |
| 20260502100440 | 42 | 187 | 0.0 | 1.0 | 0.00 | 0.22 | 0.22 | 99 | 1009.0 |
| 20260502091414 | 42 | 165 | 1.0 | 1.0 | 0.00 | 0.21 | 0.21 | 99 | 1008.6 |
| 20260502090911 | 42 | 165 | 0.0 | 0.0 | 0.00 | 0.21 | 0.21 | 99 | 1008.6 |
| 20260502090408 | 42 | 164 | 0.0 | 0.0 | 0.00 | 0.21 | 0.21 | 99 | 1008.5 |
| 20260502071302 | 43 | 165 | 0.0 | 0.0 | 0.00 | 0.17 | 0.17 | 99 | 1008.4 |
| 20260502070801 | 43 | 165 | 0.0 | 0.0 | 0.00 | 0.17 | 0.17 | 99 | 1008.4 |
| 20260502070258 | 43 | 165 | 0.0 | 0.0 | 0.05 | 0.17 | 0.17 | 99 | 1008.9 |
| 20260502065757 | 43 | 165 | 0.0 | 0.0 | 0.05 | 0.17 | 0.17 | 99 | 1008.9 |
| 20260502065254 | 43 | 165 | 0.0 | 0.0 | 0.00 | 0.16 | 0.16 | 99 | 1009.0 |
| 20260502064752 | 43 | 165 | 0.0 | 1.0 | 0.00 | 0.16 | 0.16 | 99 | 1009.0 |
| 20260502064250 | 43 | 165 | 0.0 | 0.0 | 0.00 | 0.16 | 0.16 | 99 | 1008.7 |
| 20260502063747 | 43 | 165 | 1.0 | 1.0 | 0.07 | 0.16 | 0.16 | 99 | 1008.8 |
| 20260502063245 | 43 | 165 | 0.0 | 0.0 | 0.12 | 0.16 | 0.16 | 99 | 1009.0 |
| 20260502062742 | 44 | 165 | 0.0 | 0.0 | 0.05 | 0.15 | 0.15 | 99 | 1009.2 |
| 20260502062239 | 44 | 165 | 0.0 | 0.0 | 0.07 | 0.14 | 0.14 | 99 | 1009.3 |
| 20260502061738 | 44 | 165 | 0.0 | 0.0 | 0.12 | 0.14 | 0.14 | 99 | 1009.1 |
| 20260502061235 | 44 | 165 | 0.0 | 0.0 | 0.05 | 0.13 | 0.13 | 99 | 1009.3 |
| 20260502060729 | 44 | 165 | 1.0 | 1.0 | 0.12 | 0.12 | 0.12 | 99 | 1009.6 |
| 20260502060221 | 44 | 165 | 1.0 | 1.0 | 0.12 | 0.12 | 0.12 | 99 | 1009.5 |
| 20260502055719 | 44 | 165 | 1.0 | 1.0 | 0.17 | 0.11 | 0.11 | 99 | 1009.5 |
| 20260502055216 | 44 | 152 | 0.0 | 0.0 | 0.19 | 0.10 | 0.10 | 99 | 1009.6 |
| 20260502054715 | 44 | 152 | 1.0 | 1.0 | 0.07 | 0.08 | 0.08 | 99 | 1009.9 |
| 20260502054212 | 44 | 152 | 0.0 | 1.0 | 0.05 | 0.07 | 0.07 | 99 | 1009.7 |
| 20260502053710 | 44 | 152 | 1.0 | 2.0 | 0.05 | 0.07 | 0.07 | 99 | 1009.9 |
| 20260502053207 | 44 | 152 | 1.0 | 1.0 | 0.00 | 0.06 | 0.06 | 99 | 1009.5 |
| 20260502052705 | 44 | 152 | 1.0 | 1.0 | 0.00 | 0.06 | 0.06 | 99 | 1009.5 |
| 20260502052203 | 44 | 152 | 0.0 | 0.0 | 0.07 | 0.06 | 0.06 | 99 | 1009.3 |
| 20260502051701 | 44 | 151 | 0.0 | 0.0 | 0.19 | 0.06 | 0.06 | 99 | 1009.3 |
| 20260502051159 | 44 | 151 | 0.0 | 0.0 | 0.12 | 0.05 | 0.05 | 99 | 1009.4 |
| 20260502050655 | 44 | 151 | 1.0 | 1.0 | 0.00 | 0.03 | 0.03 | 99 | 1009.5 |
| 20260502050151 | 44 | 151 | 1.0 | 1.0 | 0.00 | 0.03 | 0.03 | 99 | 1009.2 |
| 20260502045648 | 44 | 151 | 0.0 | 0.0 | 0.00 | 0.03 | 0.03 | 99 | 1009.2 |
| 20260502045145 | 44 | 151 | 0.0 | 0.0 | 0.00 | 0.03 | 0.03 | 99 | 1009.3 |
| 20260502044636 | 44 | 151 | 0.0 | 1.0 | 0.00 | 0.03 | 0.03 | 99 | 1009.4 |
| 20260502044132 | 44 | 151 | 0.0 | 1.0 | 0.07 | 0.03 | 0.03 | 99 | 1009.5 |
| 20260502043630 | 44 | 151 | 0.0 | 0.0 | 0.07 | 0.03 | 0.03 | 99 | 1009.5 |
| 20260502043127 | 44 | 151 | 0.0 | 0.0 | 0.07 | 0.03 | 0.03 | 99 | 1009.4 |
| 20260502042621 | 44 | 151 | 0.0 | 1.0 | 0.00 | 0.02 | 0.02 | 99 | 1009.3 |
| 20260502042118 | 44 | 151 | 1.0 | 2.0 | 0.00 | 0.02 | 0.02 | 99 | 1009.5 |
| 20260502041616 | 44 | 151 | 1.0 | 1.0 | 0.00 | 0.02 | 0.02 | 99 | 1009.3 |
| 20260502041113 | 44 | 151 | 1.0 | 1.0 | 0.12 | 0.02 | 0.02 | 99 | 1009.1 |
| 20260502040610 | 44 | 151 | 1.0 | 1.0 | 0.12 | 0.02 | 0.02 | 99 | 1009.2 |
| 20260502040107 | 44 | 151 | 0.0 | 0.0 | 0.00 | 0.03 | 0.03 | 99 | 1009.6 |
| 20260502035603 | 44 | 151 | 0.0 | 1.0 | 0.00 | 0.03 | 0.03 | 99 | 1009.5 |
| 20260502035100 | 44 | 151 | 1.0 | 1.0 | 0.00 | 0.03 | 0.03 | 99 | 1009.2 |
| 20260502034558 | 44 | 151 | 1.0 | 1.0 | 0.00 | 0.03 | 0.03 | 99 | 1009.4 |
| 20260502034056 | 44 | 151 | 1.0 | 1.0 | 0.00 | 0.03 | 0.03 | 98 | 1009.2 |
| 20260502033554 | 44 | 151 | 1.0 | 1.0 | 0.00 | 0.03 | 0.03 | 98 | 1009.1 |
| 20260502033051 | 44 | 151 | 1.0 | 1.0 | 0.00 | 0.03 | 0.03 | 98 | 1009.0 |
| 20260502032547 | 44 | 151 | 1.0 | 1.0 | 0.05 | 0.03 | 0.03 | 97 | 1009.2 |
| 20260502032044 | 44 | 151 | 0.0 | 1.0 | 0.05 | 0.03 | 0.03 | 97 | 1009.1 |
| 20260502031541 | 45 | 151 | 1.0 | 1.0 | 0.00 | 0.02 | 0.02 | 97 | 1009.2 |
| 20260502031039 | 45 | 152 | 0.0 | 0.0 | 0.00 | 0.02 | 0.02 | 97 | 1009.3 |
| 20260502030538 | 45 | 152 | 0.0 | 0.0 | 0.00 | 0.02 | 0.02 | 97 | 1009.4 |
| 20260502030035 | 45 | 158 | 0.0 | 1.0 | 0.00 | 0.02 | 0.02 | 97 | 1009.6 |
| 20260502025532 | 45 | 159 | 1.0 | 1.0 | 0.00 | 0.02 | 0.02 | 96 | 1009.5 |
| 20260502025031 | 45 | 158 | 1.0 | 1.0 | 0.00 | 0.02 | 0.02 | 96 | 1009.3 |
| 20260502024527 | 45 | 137 | 1.0 | 2.0 | 0.07 | 0.02 | 0.02 | 96 | 1009.3 |
| 20260502024026 | 45 | 159 | 0.0 | 0.0 | 0.07 | 0.02 | 0.02 | 96 | 1009.7 |
| 20260502023523 | 45 | 160 | 1.0 | 1.0 | 0.00 | 0.01 | 0.01 | 96 | 1010.1 |
| 20260502023020 | 45 | 160 | 0.0 | 0.0 | 0.00 | 0.01 | 0.01 | 94 | 1009.6 |
| 20260502022517 | 45 | 160 | 0.0 | 0.0 | 0.00 | 0.01 | 0.01 | 94 | 1009.8 |
| 20260502022014 | 46 | 160 | 0.0 | 0.0 | 0.00 | 0.01 | 0.01 | 93 | 1009.7 |
| 20260502021512 | 46 | 160 | 0.0 | 1.0 | 0.05 | 0.01 | 0.01 | 91 | 1009.7 |
| 20260502021008 | 47 | 160 | 0.0 | 0.0 | 0.05 | 0.01 | 0.01 | 89 | 1009.7 |
| 20260502020506 | 47 | 160 | 0.0 | 0.0 | 0.05 | 0.01 | 0.01 | 86 | 1009.9 |
| 20260502020003 | 47 | 154 | 0.0 | 0.0 | 0.00 | 0.00 | 0.00 | 85 | 1010.2 |
| 20260502015501 | 47 | 166 | 1.0 | 2.0 | 0.00 | 0.00 | 0.00 | 85 | 1009.9 |
| 20260502014957 | 47 | 128 | 0.0 | 1.0 | 0.00 | 0.00 | 0.00 | 87 | 1009.6 |
| 20260502014454 | 47 | 128 | 0.0 | 0.0 | 0.00 | 0.00 | 0.00 | 88 | 1009.7 |
| 20260502013950 | 47 | 128 | 0.0 | 0.0 | 0.00 | 0.00 | 0.00 | 87 | 1009.4 |
| 20260502013446 | 47 | 128 | 0.0 | 0.0 | 0.00 | 0.00 | 0.00 | 85 | 1009.5 |
| 20260502012942 | 48 | 140 | 0.0 | 0.0 | 0.00 | 0.00 | 0.00 | 83 | 1009.3 |
| 20260502012440 | 48 | 140 | 0.0 | 0.0 | 0.00 | 0.00 | 0.00 | 81 | 1009.4 |
| 20260502011938 | 48 | 140 | 0.0 | 0.0 | 0.00 | 0.00 | 0.00 | 80 | 1009.2 |
| 20260502011433 | 48 | 140 | 0.0 | 0.0 | 0.00 | 0.00 | 0.00 | 77 | 1009.0 |
| 20260502010931 | 48 | 140 | 0.0 | 0.0 | 0.00 | 0.00 | 0.00 | 77 | 1009.1 |
| 20260502010427 | 48 | 140 | 0.0 | 0.0 | 0.00 | 0.00 | 0.00 | 77 | 1009.0 |
| 20260502005924 | 48 | 140 | 0.0 | 0.0 | 0.00 | 0.00 | 0.00 | 76 | 1008.9 |
| 20260502005422 | 48 | 140 | 0.0 | 1.0 | 0.00 | 0.00 | 0.00 | 75 | 1008.9 |
| 20260502004920 | 48 | 140 | 1.0 | 1.0 | 0.00 | 0.00 | 0.00 | 76 | 1008.9 |
| 20260502004415 | 48 | 140 | 0.0 | 0.0 | 0.00 | 0.00 | 0.00 | 76 | 1009.0 |
| 20260502003913 | 48 | 140 | 0.0 | 1.0 | 0.00 | 0.00 | 0.00 | 77 | 1008.8 |
| 20260502003410 | 48 | 140 | 0.0 | 0.0 | 0.00 | 0.00 | 0.00 | 76 | 1008.9 |
| 20260502002905 | 48 | 140 | 0.0 | 0.0 | 0.00 | 0.00 | 0.00 | 76 | 1008.9 |
| 20260502002403 | 49 | 140 | 0.0 | 0.0 | 0.00 | 0.00 | 0.00 | 74 | 1009.0 |
| 20260502001855 | 49 | 140 | 0.0 | 0.0 | 0.00 | 0.00 | 0.00 | 74 | 1008.8 |
| 20260502001352 | 49 | 140 | 0.0 | 1.0 | 0.00 | 0.00 | 0.00 | 74 | 1008.6 |
| 20260502000850 | 49 | 140 | 0.0 | 0.0 | 0.00 | 0.00 | 0.00 | 74 | 1008.7 |
| 20260502000348 | 49 | 140 | 0.0 | 0.0 | 0.00 | 0.00 | 0.00 | 72 | 1008.9 |
| 20260501235844 | 49 | 140 | 0.0 | 0.0 | 0.00 | 0.00 | 0.00 | 72 | 1008.8 |
| 20260501235339 | 50 | 140 | 0.0 | 0.0 | 0.00 | 0.00 | 0.00 | 70 | 1008.7 |
| 20260501234835 | 50 | 140 | 0.0 | 0.0 | 0.00 | 0.00 | 0.00 | 71 | 1008.5 |
| 20260501234332 | 50 | 140 | 0.0 | 0.0 | 0.00 | 0.00 | 0.00 | 74 | 1008.6 |
| 20260501233831 | 50 | 140 | 0.0 | 0.0 | 0.00 | 0.00 | 0.00 | 71 | 1008.5 |
| 20260501233328 | 50 | 140 | 0.0 | 0.0 | 0.00 | 0.00 | 0.00 | 72 | 1008.6 |
| 20260501232823 | 50 | 140 | 0.0 | 0.0 | 0.00 | 0.00 | 0.00 | 73 | 1008.4 |
| 20260501232321 | 50 | 140 | 0.0 | 0.0 | 0.00 | 0.00 | 0.00 | 73 | 1008.4 |
| 20260501231818 | 51 | 107 | 1.0 | 1.0 | 0.00 | 0.00 | 0.00 | 72 | 1008.2 |
| 20260501231316 | 52 | 163 | 0.0 | 0.0 | 0.00 | 0.00 | 0.00 | 62 | 1008.5 |
| 20260501230814 | 52 | 86 | 2.0 | 3.0 | 0.00 | 0.00 | 0.00 | 64 | 1008.4 |
| 20260501230313 | 52 | 124 | 1.0 | 2.0 | 0.00 | 0.00 | 0.00 | 62 | 1008.2 |
| 20260501225810 | 53 | 196 | 1.0 | 2.0 | 0.00 | 0.00 | 0.00 | 64 | 1008.3 |
| 20260501225308 | 53 | 196 | 1.0 | 1.0 | 0.00 | 0.00 | 0.00 | 61 | 1008.5 |
| 20260501224803 | 53 | 196 | 0.0 | 1.0 | 0.00 | 0.00 | 0.00 | 59 | 1008.1 |
| 20260501224301 | 53 | 194 | 0.0 | 1.0 | 0.00 | 0.00 | 0.00 | 61 | 1008.4 |
| 20260501223756 | 53 | 194 | 1.0 | 1.0 | 0.00 | 0.00 | 0.00 | 59 | 1008.3 |
| 20260501223253 | 54 | 221 | 1.0 | 1.0 | 0.00 | 0.00 | 0.00 | 59 | 1008.1 |
| 20260501222749 | 54 | 220 | 0.0 | 1.0 | 0.00 | 0.00 | 0.00 | 58 | 1008.1 |
| 20260501222247 | 54 | 89 | 1.0 | 1.0 | 0.00 | 0.00 | 0.00 | 56 | 1008.3 |
| 20260501221743 | 54 | 145 | 0.0 | 0.0 | 0.00 | 0.00 | 0.00 | 57 | 1008.0 |
| 20260501221240 | 54 | 143 | 1.0 | 1.0 | 0.00 | 0.00 | 0.00 | 59 | 1007.8 |
| 20260501220737 | 54 | 212 | 1.0 | 1.0 | 0.00 | 0.00 | 0.00 | 58 | 1008.0 |
| 20260501220234 | 55 | 212 | 1.0 | 1.0 | 0.00 | 0.00 | 0.00 | 57 | 1008.1 |
| 20260501215732 | 55 | 117 | 2.0 | 3.0 | 0.00 | 0.00 | 0.00 | 55 | 1008.0 |
| 20260501215227 | 55 | 219 | 1.0 | 1.0 | 0.00 | 0.00 | 0.00 | 57 | 1007.9 |
| 20260501214722 | 55 | 210 | 2.0 | 2.0 | 0.00 | 0.00 | 0.00 | 56 | 1008.1 |
| 20260501214219 | 55 | 105 | 1.0 | 1.0 | 0.00 | 0.00 | 0.00 | 56 | 1008.3 |
| 20260501213716 | 55 | 170 | 1.0 | 2.0 | 0.00 | 0.00 | 0.00 | 57 | 1008.0 |
| 20260501213212 | 55 | 195 | 2.0 | 2.0 | 0.00 | 0.00 | 0.00 | 55 | 1008.0 |
| 20260501212708 | 56 | 238 | 3.0 | 4.0 | 0.00 | 0.00 | 0.00 | 52 | 1008.0 |
| 20260501212204 | 56 | 53 | 0.0 | 1.0 | 0.00 | 0.00 | 0.00 | 48 | 1007.9 |
| 20260501211701 | 56 | 228 | 1.0 | 2.0 | 0.00 | 0.00 | 0.00 | 51 | 1007.9 |
| 20260501211159 | 56 | 250 | 1.0 | 2.0 | 0.00 | 0.00 | 0.00 | 48 | 1007.8 |
| 20260501210656 | 56 | 189 | 2.0 | 3.0 | 0.00 | 0.00 | 0.00 | 51 | 1007.5 |
| 20260501210152 | 56 | 169 | 1.0 | 1.0 | 0.00 | 0.00 | 0.00 | 48 | 1007.6 |
| 20260501205648 | 57 | 172 | 1.0 | 2.0 | 0.00 | 0.00 | 0.00 | 47 | 1007.6 |
| 20260501205146 | 57 | 148 | 0.0 | 1.0 | 0.00 | 0.00 | 0.00 | 48 | 1007.5 |
| 20260501204643 | 57 | 237 | 2.0 | 2.0 | 0.00 | 0.00 | 0.00 | 47 | 1007.4 |
| 20260501204138 | 57 | 193 | 1.0 | 1.0 | 0.00 | 0.00 | 0.00 | 48 | 1007.4 |
| 20260501203635 | 57 | 180 | 1.0 | 2.0 | 0.00 | 0.00 | 0.00 | 47 | 1007.4 |
| 20260501203133 | 57 | 116 | 1.0 | 2.0 | 0.00 | 0.00 | 0.00 | 47 | 1007.4 |
| 20260501202630 | 57 | 129 | 1.0 | 1.0 | 0.00 | 0.00 | 0.00 | 43 | 1007.4 |
| 20260501202127 | 57 | 155 | 1.0 | 1.0 | 0.00 | 0.00 | 0.00 | 47 | 1007.4 |
| 20260501201624 | 57 | 158 | 0.0 | 0.0 | 0.00 | 0.00 | 0.00 | 44 | 1007.3 |
| 20260501201120 | 58 | 192 | 0.0 | 1.0 | 0.00 | 0.00 | 0.00 | 46 | 1007.2 |
| 20260501200617 | 59 | 197 | 3.0 | 3.0 | 0.00 | 0.00 | 0.00 | 43 | 1007.4 |
| 20260501200115 | 60 | 200 | 1.0 | 1.0 | 0.00 | 0.00 | 0.00 | 41 | 1007.4 |
| 20260501195612 | 62 | 102 | 2.0 | 3.0 | 0.00 | 0.00 | 0.00 | 42 | 1007.6 |
| 20260501195108 | 60 | 112 | 3.0 | 3.0 | 0.00 | 0.00 | 0.00 | 41 | 1007.5 |
| 20260501194603 | 60 | 197 | 3.0 | 4.0 | 0.00 | 0.00 | 0.00 | 41 | 1007.5 |
| 20260501194059 | 61 | 149 | 2.0 | 2.0 | 0.00 | 0.00 | 0.00 | 41 | 1007.6 |
| 20260501193556 | 60 | 206 | 2.0 | 2.0 | 0.00 | 0.00 | 0.00 | 41 | 1007.7 |
| 20260501193055 | 58 | 220 | 4.0 | 4.0 | 0.00 | 0.00 | 0.00 | 43 | 1007.9 |
| 20260501192551 | 57 | 145 | 1.0 | 2.0 | 0.00 | 0.00 | 0.00 | 45 | 1007.8 |
| 20260501192049 | 57 | 29 | 0.0 | 0.0 | 0.00 | 0.00 | 0.00 | 45 | 1008.0 |
| 20260501191546 | 57 | 240 | 2.0 | 2.0 | 0.00 | 0.00 | 0.00 | 45 | 1007.8 |
| 20260501191043 | 58 | 349 | 1.0 | 1.0 | 0.00 | 0.00 | 0.00 | 47 | 1008.0 |
| 20260501190539 | 57 | 223 | 1.0 | 2.0 | 0.00 | 0.00 | 0.00 | 46 | 1007.9 |
| 20260501190034 | 57 | 223 | 4.0 | 4.0 | 0.00 | 0.00 | 0.00 | 44 | 1007.9 |
| 20260501185531 | 57 | 206 | 2.0 | 3.0 | 0.00 | 0.00 | 0.00 | 44 | 1008.2 |
| 20260501185027 | 59 | 231 | 3.0 | 4.0 | 0.00 | 0.00 | 0.00 | 44 | 1008.0 |
| 20260501184523 | 60 | 212 | 3.0 | 4.0 | 0.00 | 0.00 | 0.00 | 43 | 1008.0 |
| 20260501184017 | 59 | 233 | 4.0 | 4.0 | 0.00 | 0.00 | 0.00 | 45 | 1008.1 |
| 20260501183515 | 60 | 234 | 4.0 | 4.0 | 0.00 | 0.00 | 0.00 | 44 | 1008.3 |
| 20260501183011 | 59 | 183 | 3.0 | 3.0 | 0.00 | 0.00 | 0.00 | 43 | 1008.1 |
| 20260501182508 | 58 | 118 | 0.0 | 0.0 | 0.00 | 0.00 | 0.00 | 44 | 1008.2 |
| 20260501182005 | 60 | 223 | 3.0 | 3.0 | 0.00 | 0.00 | 0.00 | 41 | 1008.3 |
| 20260501181502 | 58 | 289 | 0.0 | 1.0 | 0.00 | 0.00 | 0.00 | 47 | 1008.4 |
| 20260501180959 | 59 | 348 | 2.0 | 3.0 | 0.00 | 0.00 | 0.00 | 42 | 1008.2 |
| 20260501180456 | 58 | 132 | 4.0 | 4.0 | 0.00 | 0.00 | 0.00 | 45 | 1008.4 |
| 20260501175952 | 58 | 116 | 1.0 | 1.0 | 0.00 | 0.00 | 0.00 | 43 | 1008.5 |